DAL1123 KVPS-KATL

Flight info

Callsign DAL1123
Flight time N/A
Altitude 23000
Route ENNTT HOBTT3
Aircraft B739/M-SDE2E3FGHIRWXY/LB1

Departure

Time 2026-05-07 22:01
Airport Destin-Fort Walton Beach Airport (KVPS)

Arrival

Time N/A
Airport Hartsfield Jackson Atlanta International Airport (KATL)
Time Latitude Longitude Altitude Speed Heading
2026-05-07 21:28 30.49472 -86.54899 94 ft 0 kts 291°
2026-05-07 21:48 30.49472 -86.54898 94 ft 2 kts 291°
2026-05-07 21:48 30.49462 -86.54871 95 ft 4 kts 291°
2026-05-07 21:48 30.49457 -86.54844 95 ft 4 kts 253°
2026-05-07 21:49 30.49458 -86.54836 94 ft 4 kts 213°
2026-05-07 21:49 30.49433 -86.54842 94 ft 4 kts 181°
2026-05-07 21:49 30.49406 -86.54840 97 ft 4 kts 176°
2026-05-07 21:49 30.49379 -86.54839 94 ft 4 kts 180°
2026-05-07 21:50 30.49372 -86.54839 94 ft 0 kts 181°
2026-05-07 21:52 30.49369 -86.54839 94 ft 2 kts 181°
2026-05-07 21:52 30.49347 -86.54840 97 ft 5 kts 181°
2026-05-07 21:53 30.49303 -86.54841 95 ft 8 kts 182°
2026-05-07 21:53 30.49241 -86.54848 94 ft 10 kts 188°
2026-05-07 21:53 30.49173 -86.54870 96 ft 10 kts 199°
2026-05-07 21:53 30.49110 -86.54910 98 ft 11 kts 212°
2026-05-07 21:54 30.49042 -86.54955 100 ft 11 kts 205°
2026-05-07 21:54 30.48978 -86.54924 103 ft 11 kts 125°
2026-05-07 21:54 30.48936 -86.54840 103 ft 13 kts 120°
2026-05-07 21:54 30.48884 -86.54736 102 ft 17 kts 120°
2026-05-07 21:55 30.48821 -86.54610 101 ft 19 kts 119°
2026-05-07 21:55 30.48750 -86.54467 99 ft 22 kts 120°
2026-05-07 21:55 30.48668 -86.54304 98 ft 24 kts 120°
2026-05-07 21:55 30.48586 -86.54134 97 ft 25 kts 120°
2026-05-07 21:56 30.48500 -86.53959 100 ft 25 kts 120°
2026-05-07 21:56 30.48418 -86.53793 98 ft 23 kts 120°
2026-05-07 21:56 30.48343 -86.53635 99 ft 22 kts 118°
2026-05-07 21:56 30.48270 -86.53481 98 ft 21 kts 120°
2026-05-07 21:57 30.48195 -86.53337 98 ft 21 kts 120°
2026-05-07 21:57 30.48125 -86.53195 95 ft 20 kts 120°
2026-05-07 21:57 30.48058 -86.53058 95 ft 19 kts 119°
2026-05-07 21:57 30.47993 -86.52928 98 ft 18 kts 120°
2026-05-07 21:58 30.47930 -86.52803 96 ft 18 kts 118°
2026-05-07 21:58 30.47869 -86.52681 99 ft 17 kts 120°
2026-05-07 21:58 30.47806 -86.52552 99 ft 20 kts 118°
2026-05-07 21:58 30.47734 -86.52403 99 ft 22 kts 121°
2026-05-07 21:59 30.47686 -86.52239 99 ft 23 kts 100°
2026-05-07 21:59 30.47644 -86.52064 97 ft 21 kts 130°
2026-05-07 21:59 30.47533 -86.51990 97 ft 16 kts 156°
2026-05-07 21:59 30.47438 -86.51943 95 ft 14 kts 158°
2026-05-07 22:00 30.47360 -86.51904 96 ft 11 kts 156°
2026-05-07 22:00 30.47303 -86.51902 96 ft 7 kts 200°
2026-05-07 22:00 30.47270 -86.51946 99 ft 10 kts 275°
2026-05-07 22:00 30.47343 -86.52107 98 ft 51 kts 300°
2026-05-07 22:01 30.47640 -86.52705 99 ft 119 kts 299°
2026-05-07 22:01 30.48153 -86.53731 161 ft 166 kts 296°
2026-05-07 22:01 30.48761 -86.54909 669 ft 179 kts 303°
2026-05-07 22:01 30.49833 -86.55697 1226 ft 192 kts 346°
2026-05-07 22:02 30.51142 -86.55684 2180 ft 179 kts 357°
2026-05-07 22:02 30.52422 -86.55616 2760 ft 191 kts 360°
2026-05-07 22:02 30.53806 -86.55379 3099 ft 213 kts
2026-05-07 22:02 30.55357 -86.55071 3376 ft 242 kts
2026-05-07 22:03 30.57093 -86.54710 3821 ft 266 kts
2026-05-07 22:03 30.58932 -86.54315 4783 ft 265 kts
2026-05-07 22:03 30.60749 -86.53927 5791 ft 271 kts
2026-05-07 22:03 30.62659 -86.53527 6604 ft 281 kts
2026-05-07 22:04 30.64589 -86.53121 7571 ft 282 kts
2026-05-07 22:04 30.66538 -86.52718 8436 ft 290 kts
2026-05-07 22:04 30.68557 -86.52303 9366 ft 296 kts
2026-05-07 22:04 30.70589 -86.51887 10211 ft 302 kts
2026-05-07 22:05 30.72729 -86.51454 10634 ft 322 kts
2026-05-07 22:05 30.75026 -86.50995 10815 ft 347 kts
2026-05-07 22:05 30.77468 -86.50505 10977 ft 369 kts
2026-05-07 22:05 30.80080 -86.49977 11123 ft 388 kts
2026-05-07 22:06 30.82780 -86.49426 11320 ft 403 kts
2026-05-07 22:06 30.85581 -86.48850 11766 ft 409 kts
2026-05-07 22:06 30.88379 -86.48272 12345 ft 411 kts
2026-05-07 22:06 30.91222 -86.47685 12954 ft 414 kts
2026-05-07 22:07 30.94058 -86.47102 13499 ft 416 kts
2026-05-07 22:07 30.96905 -86.46518 13976 ft 419 kts
2026-05-07 22:07 30.99789 -86.45929 14368 ft 423 kts
2026-05-07 22:07 31.02720 -86.45331 14759 ft 428 kts
2026-05-07 22:08 31.05649 -86.44733 15143 ft 432 kts
2026-05-07 22:08 31.08611 -86.44127 15547 ft 435 kts
2026-05-07 22:08 31.11630 -86.43510 15939 ft 439 kts
2026-05-07 22:08 31.14629 -86.42895 16327 ft 443 kts
2026-05-07 22:09 31.17664 -86.42273 16715 ft 446 kts
2026-05-07 22:09 31.20760 -86.41638 17095 ft 450 kts
2026-05-07 22:09 31.23833 -86.41007 17451 ft 453 kts
2026-05-07 22:09 31.26935 -86.40370 17814 ft 456 kts
2026-05-07 22:10 31.30098 -86.39719 18173 ft 460 kts
2026-05-07 22:10 31.33230 -86.39075 18488 ft 462 kts